Weather in Pasay

Philippines     14°32′33″N   120°59′45″E
temp.,
°C
wind,
m/s
gust,
m/s
humid.,
%
clouds,
%
prec.,
mm/h
press.,
hPa
HPBL,
m
15 april, thu
thu1523:00+28e33715 0.2 1011488
02:00+27ese337435 0.3 1009423
05:00+27e337586 0.0 1009430
08:00+28ene126872 0.0 1011548
11:00+30ssw1357100 0.0 1010911
14:00+33sse445387 0.0 1007965
17:00+31se675851 0.0 1007630
20:00+29ese676755 0.0 1010586
16 april, fri
fri1623:00+28ese446863 0.0 1011483
02:00+27e3372100 0.0 1009362
05:00+27ese3373100 0.0 1010407
08:00+28ese347081 0.0 1012600
11:00+31sse2454100 0.0 10111099
14:00+33sse354519 0.0 10081035
17:00+32ese784782 0.0 1008679
20:00+29ese6865100 0.0 1011570
17 april, sat
sat1723:00+28e4471100 0.0 1012433
02:00+27e2272100 0.0 1010346
05:00+27e337415 0.0 1010352
08:00+28ene126617 0.0 1012650
11:00+31sse1354100 0.0 10111075
14:00+33ese5546100 0.0 10081147
17:00+33ese7740100 0.0 1007772
20:00+29ese4559100 0.0 1010555
18 april, sun
sun1823:00+28e3362100 0.0 1011492
02:00+28e2264100 0.1 1009490
05:00+27ese447294 0.1 1009430
08:00+28e2267100 0.1 1010675
11:00+30wsw1255100 0.0 1009917
14:00+32w3347100 0.0 1005949
17:00+31s2355100 0.0 1005767
20:00+29s3363100 0.3 1008447
19 april, mon
mon1923:00+29sse2262100 0.3 1008439
02:00+28s2267100 1.6 1007261
05:00+27sse2270100 0.0 1006374
08:00+28ese1166100 0.0 1007580
11:00+30wnw2258100 0.0 1007872
14:00+32wsw4451100 0.0 1004923
17:00+30wsw8863100 0.0 1003534
20:00+29wsw4567100 0.9 1006444